Location: Titusville
(28.6119°N, 80.8078°W)
Time: 11:02:06
(UTC-04:00)

Tiangong 2 - Visible Passes

Search period start: 20 June 2018 00:00
Search period end: 30 June 2018 00:00
Orbit: 291 x 297 km, 42.8° (Epoch: 20 June)

Date Brightness Start Highest point End Pass type
(mag) Time Alt. Az. Time Alt. Az. Time Alt. Az.
21 Jun 3.2 05:48:38 10° S 05:50:07 14° SE 05:51:37 10° ESE visible
22 Jun 1.5 05:53:40 10° SSW 05:56:04 38° SE 05:58:29 10° ENE visible
24 Jun 3.4 04:34:29 14° ESE 04:34:29 14° ESE 04:35:13 10° E visible
25 Jun 2.3 04:39:59 30° E 04:39:59 30° E 04:41:33 10° ENE visible
26 Jun 1.8 04:45:19 38° NNE 04:45:19 38° NNE 04:47:14 10° NE visible
27 Jun 2.6 04:50:31 21° NNW 04:50:31 21° NNW 04:52:28 10° NNE visible
28 Jun 3.4 04:55:35 11° NW 04:56:07 12° NNW 04:57:06 10° N visible
